Regional Weather Roundup
Issued by NWS Pendleton, OR

Home | Current Version | Previous Version | Text Only | Print | Product List | Glossary On
Versions: 1 2 3 4 5 6 7 8 9 10 11 12 13 14 15 16 17 18 19 20 21 22 23 24 25 26 27 28 29 30 31 32 33 34 35 36 37 38 39 40 41 42 43 44 45 46 47 48 49 50
000
ASUS46 KPDT 040725
RWRPDT
PENDLETON REGIONAL WEATHER ROUNDUP
NATIONAL WEATHER SERVICE PENDLETON OREGON
1200 AM PDT SAT JUL 4 2015

NOTE: FAIR INDICATES FEW OR NO CLOUDS BELOW 12,000 FEET WITH NO
SIGNIFICANT WEATHER AND/OR OBSTRUCTIONS TO VISIBILITY.

# INDICATES UNOFFICIAL STATION AND DATA

WAZ520-040810-
EAST SLOPES OF WASHINGTON CASCADES

CITY            SKY/WX      TMP DP  RH  WIND    PRES   REMARKS
#BULLFROG 2SW   N/A         68  50  53  CALM    27.52S
#BUMPING DAM    N/A         64  N/A N/A W9      N/A
#CLE ELUM HS    N/A         75  52  45  NW6     29.83S
#CLE ELUM LAKE  N/A         70  50  49  CALM    29.72F
#CLIFFDEL 2NW   N/A         72  50  46  W1      N/A
#GLENWOOD       N/A         58  52  80  CALM    29.74S
#MANASTASH CYN  N/A         74  41  30  CALM    29.87F
#NELSON         N/A         74  54  50  CALM    29.76S
#NELSON 3SW     N/A         73  48  41  CALM    29.92F
#NILE           N/A         71  51  49  E2      29.06S
#RONALD 2NW     N/A         73  50  44  N1      29.82S
#SNOWDEN        N/A         67  38  34  CALM    N/A
#TEANAWAY 4NE   N/A         74  54  50  W2      N/A
#TROUT LAKE 1NE N/A         75  53  46  W1      29.74F
$$

WAZ521-040810-
SIMCOE HIGHLANDS

CITY            SKY/WX      TMP DP  RH  WIND    PRES   REMARKS
#BICKLETON HS   N/A         77  34  21  N7      N/A
#GOLDENDALE     N/A         75  50  41  W5      N/A
#GOLDENDALE 5WNWN/A         77  53  43  W13     29.69F
#GOODNOE HILLS  N/A         81  51  35  NW8     N/A
#LYLE 6NE       N/A         77  53  43  W7      29.71F
$$

WAZ026-040810-
KITTITAS VALLEY

CITY            SKY/WX      TMP DP  RH  WIND    PRES   REMARKS
ELLENSBURG AP   CLEAR       78  50  38  NW15    29.82F
YTC-OPS AREA    N/A         74  42  32  W37G47  29.82F
#ELLENSBURG CWU N/A         77  49  37  N7      29.66S
#ELLENSBURG 3NE N/A         75  52  45  N7      29.83R
#KITTITAS 3S    N/A         71  52  51  CALM    29.69F
#THORP 6N       N/A         74  51  44  W21G35  29.72R
$$

WAZ027-040810-
YAKIMA VALLEY

CITY            SKY/WX      TMP DP  RH  WIND    PRES   REMARKS
SUNNYSIDE AP    CLEAR       67  55  65  NE5     29.73S
YAKIMA AIRPORT  CLEAR       85  47  27  NW12    29.78S
#DONALD 2NE     N/A         85  20   9  NW2     28.60S
#GRANDVIEW      N/A         81  47  30  CALM    29.69R
#MABTON         N/A         81  51  35  SW6     29.72S
#MOXEE 2E       N/A         82  15   8  W6      29.71S
#NACHES 2SW     N/A         78  52  40  W15     29.82S
#OUTLOOK DOT    N/A         N/A N/A N/A NW13    N/A
#SELAH 8E       N/A         72  38  29  S2      N/A
#TERRACE HTS    N/A         84  43  24  N10     29.65S
#TOPPENISH      N/A         86  47  26  N12     29.60S
#WAPATO 4NE     N/A         85  20   9  NW5     28.60S
#WEST VALLEY    N/A         81  48  32  W5      29.67S
#W YAKIMA       N/A         81  49  33  NE2     29.68F
#WHITE SWAN 5E  N/A         73  56  55  S1      29.69S
#WILEY CITY 3W  N/A         77  44  31  CALM    29.76R
$$

WAZ028-040810-
LOWER COLUMBIA BASIN...WASHINGTON

CITY            SKY/WX      TMP DP  RH  WIND    PRES   REMARKS
PASCO           CLEAR       85  49  29  S3      29.70R
RICHLAND AWOS   CLEAR       82  50  33  NW5     29.70R
#BASIN CITY 5SW N/A         82  52  35  W9      29.70R
#BENTON CITY    N/A         85  47  27  W10     29.57S
#CONNELL 5N     N/A         78  51  39  W2      29.64S
#CONNELL 5NW    N/A         75  56  52  NW5     29.62R
#ELTOPIA 6NW    N/A         79  53  41  W9      28.70R
#KAHLOTUS       N/A         82  44  26  N7      29.65R
#KENNEWICK      N/A         68  50  53  CALM    27.52S
#KENNEWICK 3S   N/A         84  56  38  N2      29.66S
#PATERSON       N/A         80  61  52  E1      29.66R
#PROSSER        N/A         87  41  20  SW7     29.66R
#SAGEMOOR 2W    N/A         83  52  34  W7      29.50S
#TOUCHET 2S     N/A         84  54  36  W10     29.65R
#WEST PASCO     N/A         87  49  27  NW2     29.66S
$$

WAZ029-040810-
FOOTHILLS OF THE BLUES...WASHINGTON

CITY            SKY/WX      TMP DP  RH  WIND    PRES   REMARKS
WALLA WALLA AP  CLEAR       84  39  20  S14     29.77R
#DAYTON SCHOOL  N/A         75  36  24  N2      29.79R
#LOWDEN 2SE     N/A         69  52  55  E3      29.69R
#PLEASANT VIEW 1N/A         80  33  18  SW5     29.67S
#PRESCOTT       N/A         63  49  60  CALM    29.66R
#SUDBURY        N/A         65  N/A N/A CALM    N/A
#WAITSBURG 5S   N/A         78  40  26  S3      29.75R
#WAITSBURG 8N   N/A         61  15  16  CALM    29.59F
#WALLA WALLA U  N/A         81  49  33  CALM    29.68R
#WHITMAN MISSIONN/A         69  53  57  E1      29.70R
$$

WAZ030-040810-
BLUE MOUNTAINS...WASHINGTON

CITY            SKY/WX      TMP DP  RH  WIND    PRES   REMARKS
#DIXIE 5SE      N/A         87  45  23  W1      29.83R
$$

ORZ009-041-WAZ024-040810-
COLUMBIA RIVER GORGE

CITY            SKY/WX      TMP DP  RH  WIND    PRES   REMARKS
HOOD RIVER AP   PTCLDY      77  54  45  CALM    29.82S
THE DALLES AP   CLEAR       87  43  22  NW20G28 29.75S
#ARLINGTON AIRPON/A         83  51  33  W12     32.48
#ARLINGTON HS   N/A         86  49  28  CALM    29.58S
#CELILO DOT     N/A         86  55  35  SW8     N/A
#MOSIER 1S      N/A         78  38  24  NW6     29.79S
#MURDOCK        N/A         85  56  37  NW17G28 29.75R
#RUFUS DOT      N/A         87  58  38  W26     N/A

$$

ORZ510-040810-
NORTH CENTRAL OREGON

CITY            SKY/WX      TMP DP  RH  WIND    PRES   REMARKS
#CHENOWITH 1W   N/A         76  48  37  NW31    N/A
#COW CYN RST AREN/A         76  N/A N/A NW6     N/A
#DUFUR 9E       N/A         77  42  29  W8      29.76S
#GRASS VALLEY 1SN/A         77  46  33  W10     29.72F
#KENT DOT       N/A         68  43  40  SW8     N/A
#MAUPIN SCHOOL  N/A         81  51  35  CALM    29.82S
#MORO SCHOOL    N/A         79  46  31  W12     29.84S
#SHANIKO 5WSW   N/A         73  43  34  W8      N/A
#SHANIKO 4NW    N/A         72  42  34  W8      29.97S
#TYGH VALLEY 2NEN/A         74  44  34  CALM    29.73S
#WAPANITIA AIRPON/A         76  50  40  W2      29.73S
#WASCO DOT      N/A         79  51  38  W8      N/A
#WASCO 5NE      N/A         78  48  35  W12     29.69S
$$

ORZ511-040810-
CENTRAL OREGON

CITY            SKY/WX      TMP DP  RH  WIND    PRES   REMARKS
BEND AIRPORT    N/A         N/A N/A N/A MISG    N/A
MADRAS AIRPORT  CLEAR       72  46  39  NW5     29.94R
PRINEVILLE AP   PTCLDY      63  37  38  SW5     29.97R
6HR MIN TEMP:   76; 6HR MAX TEMP:   99;

#BEND 1SW       N/A         65  48  54  NE2     N/A
#BEND-AWBREY    N/A         71  49  46  S3      29.74S
#BEND-KIM LN    N/A         68  50  53  CALM    29.96F
#CROOKED RVR RANN/A         74  46  37  CALM    29.73R
#CULVER         N/A         72  46  39  E2      29.89R
#LAKE BILLY CHINN/A         74   3   6  SE3     29.96R
#POWELL BUTTE 3EN/A         70  41  35  SW1     N/A
#POWELL BUTTE   N/A         72  42  34  W2      29.62S
#PRINEVILLE 3N  N/A         65  50  58  E2      29.72R
#WARM SPRINGS   N/A         80  51  36  S7      29.84R

$$


ORZ509-040810-
EAST SLOPES OF OREGON CASCADES

CITY            SKY/WX      TMP DP  RH  WIND    PRES   REMARKS
#CAMP SHERMAN   N/A         69  41  36  CALM    29.74S
#LA PINE 4NW    N/A         61  45  56  CALM    29.81S
#SISTERS AIRPOR N/A         74  50  43  N3      30.17S
#SISTERS ODOT   N/A         74  N/A N/A SW3     N/A
#SISTERS 3N     N/A         73  39  29  CALM    29.99S
#SUNRIVER       N/A         66  49  54  CALM    29.65S
#TUMALO 3W      N/A         72  44  37  CALM    29.63R
#WANOGA BUTTE D N/A         70  27  20  CALM    N/A

$$

ORZ044-040810-
LOWER COLUMBIA BASIN...OREGON

CITY            SKY/WX      TMP DP  RH  WIND    PRES   REMARKS
HERMISTON       CLEAR       83  47  28  SW18    29.72R
#BOARDMAN SCHOOLN/A         82  50  33  SW8     29.72R
#BOARDMAN 8SW   N/A         81  51  35  SW9     29.68R
#ECHO 8SW       N/A         82  45  27  SW8     29.75R
#IONE SCHOOL    N/A         83  42  24  SW12    29.76R
#IRRIGON 4NW    N/A         83  56  40  S9      N/A
#UMATILLA SCHOOLN/A         83  66  57  NE5     29.77R
#UMATILLA       N/A         82  54  38  CALM    29.63R
$$

ORZ507-040810-
NORTHERN FOOTHILLS OF THE BLUES

CITY            SKY/WX      TMP DP  RH  WIND    PRES   REMARKS
PENDLETON AIRPT CLEAR       83  47  28  SW12    29.79R
#ADAMS 3WNW     N/A         67  38  34  N1      29.69S
#ATHENA         N/A         76  46  34  CALM    29.72R
#CAYUSE         N/A         76  47  36  E5      29.68S
#HELIX SCHOOL   N/A         74  48  40  CALM    29.70R
#HELIX 3N       N/A         78  48  35  N3      29.80R
#HOLDMAN 6E     N/A         79  49  35  CALM    29.51R
#M-F GROVE ELEM N/A         83  45  26  SW7     29.78R
#M-FREEWATER 5SEN/A         77  49  37  E2      29.79R
#PENDLETON DNTN N/A         76  41  28  CALM    29.75S
#PDT AQUATIC CTRN/A         79  42  27  CALM    29.83S
#PDT SUNRIDGE   N/A         77  46  33  E1      29.79S
#PENDLETON 7NW  N/A         82  55  40  W8      27.36S
#PILOT ROCK     N/A         75  44  33  SE6     29.85R
#TUTUILLA       N/A         74  47  38  S6      29.74R
#UMAPINE 2E     N/A         80  55  42  SW2     29.71R
#WESTON SCHOOL  N/A         78  41  27  W2      29.70R

$$

ORZ508-040810-
SOUTHERN FOOTHILLS OF THE BLUES

CITY            SKY/WX      TMP DP  RH  WIND    PRES   REMARKS
#AJAX           N/A         80  35  20  SW6     29.82R
#CONDON SCHOOL  N/A         73  39  29  W7      29.88S
#CONDON 5W      N/A         73  34  24  W7      29.91R
#FOSSIL SCHOOL  N/A         67  38  34  CALM    29.88R
#HEPPNER EOC    N/A         75  45  34  SW1     29.66R
#HEPPNER 4NE    N/A         74  44  34  SW3     29.70R
#LEXINGTON 2SE  N/A         75  45  34  SE1     29.80R
#RUGGS 5NE      N/A         72  41  33  SW5     30.07R
#RUGGS 2SW      N/A         76  42  30  SW8     29.72R

$$

ORZ502-503-040810-
BLUE MOUNTAINS

CITY            SKY/WX      TMP DP  RH  WIND    PRES   REMARKS
MEACHAM         CLEAR       55  45  69  CALM    29.96F
#BATTLE MTN DOT N/A         71  54  55  CALM    N/A
#HEPPNER 15SE   N/A         61  43  51  CALM    29.90F
#LONG CREEK HS  N/A         61  34  36  CALM    29.93R
#N POWDER DOT   N/A         63  49  60  NW3     N/A
#PIKES PEAK     N/A         78  47  34  SW23    27.99S
#TOLLGATE       N/A         67  40  37  CALM    29.96S
#TROY SCHOOL    N/A         76  49  39  NW1     29.55R
#UKIAH          N/A         57  46  67  CALM    29.80R
#WESTON 4E      N/A         74  45  35  S2      29.63S
$$

ORZ505-040810-
JOHN DAY BASIN

CITY            SKY/WX      TMP DP  RH  WIND    PRES   REMARKS
JOHN DAY        PTCLDY      77  29  17  CALM    29.96S
#JOHN DAY KJDY  N/A         69  69  100 E1      29.98R
#DAYVILLE SCHOOLN/A         79  30  17  CALM    29.87R
#MITCHELL       N/A         69  40  35  E1      30.11R
#MONUMENT HS    N/A         75  34  22  CALM    29.88R
#MT. VERNON 5SE N/A         77  30  18  CALM    29.93S
#WINLOCK        N/A         72  36  27  CALM    30.01R
$$

ORZ506-040810-
OCHOCO AND JOHN DAY HIGHLANDS

CITY            SKY/WX      TMP DP  RH  WIND    PRES   REMARKS
#BUCK CREEK DOT N/A         76  76  100 NE5     N/A
#HORSE RIDGE DO N/A         63  41  44  CALM    N/A
#KEYES SMT DOT  N/A         70  31  23  W6      N/A
#PAULINA SCHOOL N/A         64  33  31  CALM    29.96R
#PRAIRIE CITY   N/A         60  47  62  CALM    29.88R
#SENECA         N/A         60  N/A N/A CALM    N/A
#SENECA 9NW     N/A         57  34  42  CALM    29.71R
$$

ORZ049-040810-
GRANDE RONDE VALLEY

CITY            SKY/WX      TMP DP  RH  WIND    PRES   REMARKS
LA GRANDE       CLEAR       64  39  40  N5      29.88S
#COVE           N/A         69  47  45  NE2     29.90S
#ELGIN 3N       N/A         63  40  43  CALM    29.88S
#ELGIN 1E       N/A         66  45  47  CALM    N/A
#IMBLER SCHOOL  N/A         65  46  50  CALM    29.84S
#ISLAND CITY 4N N/A         66  53  63  CALM    29.86S
#LADD CYN DOT   N/A         74  43  33  SE15    N/A
#UNION 1S       N/A         66  48  52  CALM    29.62S
$$

ORZ050-040810-
WALLOWA COUNTY

CITY            SKY/WX      TMP DP  RH  WIND    PRES   REMARKS
JOSEPH AIRPORT  N/A         64  41  43  CALM    29.99S
#IMNAHA SCHOOL  N/A         81  44  27  SW5     29.81R
#IMNAHA 10S     N/A         76  51  42  SW3     30.01S
#JOSEPH 3N      N/A         60  48  64  CALM    29.99S
#JOSEPH 3W      N/A         66  42  42  SW5     29.86F
#LOSTINE        N/A         68  45  44  CALM    29.53S
#MT HOWARD 8000 N/A         62  N/A N/A CALM    30.28F
#PROMISE 1S     N/A         73  45  37  CALM    29.77F
#WALLOWA SCHOOL N/A         63  50  62  CALM    29.88R



$$



USA.gov is the U.S. government's official web portal to all federal, state and local government web resources and services.